sat.trackr.live / text

‹ back to catalog

STARLINK-31010

NORAD 58519 · 2023-191M

PAYLOAD ACTIVE UNKNOWN

§ Identity

Operator
Country
US
Launch date
2023-12-07
Launch site
AFETR
Launch vehicle
Mass (kg)
RCS (m²)

Purposes: comms

External: N2YO · Heavens-Above · Gunter

§ Orbital elements

Epoch: 2026-05-24T22:59:15.870048Z

Period
94.27 min
Inclination
43.0034°
Eccentricity
0.0001240
Mean motion
15.27576444 rev/d
Perigee alt
482.2 km
Apogee alt
483.9 km
Semi-major
6,861.2 km
B*
-1.9882e-6
RAAN
32.8187°
Arg perigee
250.1967°
Mean anomaly
109.8751°
Rev number
13,713

§ Raw data

STARLINK-310101 58519U 23191M   26144.95782257 -.00000317  00000+0 -19882-5 0  99912 58519  43.0034  32.8187 0001240 250.1967 109.8751 15.27576444137131

JSON: /api/v1/satellites/58519 · /tle

For live sub-satellite position, see the globe view (requires WebGL).

§ Visibility from observer

Set your observer location to see the next 7 days of passes ≥ 10°. The values pass through the URL so the page stays shareable.

No JS? Fill the form by hand. The geolocation button needs JavaScript.